{"data":{"norad_id":64335,"intl_designator":"2025-124U","name":"STARLINK-33855","alt_names":[],"object_type":"PAYLOAD","status":"ACTIVE","operator":null,"country":"US","launch_date":"2025-06-10","launch_site_code":"AFETR","launch_vehicle":null,"mission":null,"orbit_class":"UNKNOWN","rcs_meters":null,"size_class":null,"mass_kg":null,"dimensions":null,"purposes":["comms"],"wikipedia_slug":null,"has_3d_model":false,"image_url":null,"decayed_at":null,"tle_current":{"epoch":"2026-09-20T22:36:44.215488Z","epoch_age_seconds":96221,"freshness":"FRESH","line1":"1 64335U 25124U   26263.94217842  .00013716  00000+0  50664-3 0  9992","line2":"2 64335  43.0030  98.8575 0001977 280.0518  80.0110 15.27604911 71647","mean_motion":15.27604911,"eccentricity":0.0001977,"inclination_deg":43.003,"raan_deg":98.8575,"arg_perigee_deg":280.0518,"mean_anomaly_deg":80.011,"bstar":0.00050664,"rev_number":7164,"period_min":94.265211484385,"perigee_km":481.61806281318,"apogee_km":484.33094630208,"semimajor_km":6861.1115045576,"source":"CELESTRAK","updated_at":"2026-09-21T09:00:35.314347Z"}}}